TimePST,TemperatureF,Dew PointF,Humidity,Sea Level PressureIn,VisibilityMPH,Wind Direction,Wind SpeedMPH,Gust SpeedMPH,PrecipitationIn,Events,Conditions,WindDirDegrees,DateUTC
12:55 AM,21.9,17.1,82,30.29,10.0,Calm,Calm,-,N/A,,Clear,0,2014-01-02 08:55:00
1:55 AM,19.9,15.1,81,30.31,8.0,NNW,5.8,-,N/A,,Clear,340,2014-01-02 09:55:00
2:55 AM,21.0,17.1,85,30.31,10.0,NNW,5.8,-,N/A,,Clear,330,2014-01-02 10:55:00
3:55 AM,19.9,17.1,89,30.31,8.0,Calm,Calm,-,N/A,,Clear,0,2014-01-02 11:55:00
4:55 AM,17.1,15.1,92,30.34,10.0,Calm,Calm,-,N/A,,Clear,0,2014-01-02 12:55:00
5:55 AM,15.1,12.0,88,30.36,6.0,Calm,Calm,-,N/A,,Clear,0,2014-01-02 13:55:00
6:55 AM,14.0,10.9,88,30.38,10.0,NNW,3.5,-,N/A,,Clear,340,2014-01-02 14:55:00
7:55 AM,15.1,12.0,88,30.39,10.0,NW,3.5,-,N/A,,Clear,320,2014-01-02 15:55:00
8:55 AM,24.1,18.0,77,30.38,9.0,Calm,Calm,-,N/A,,Clear,0,2014-01-02 16:55:00
9:55 AM,32.0,23.0,69,30.38,10.0,Calm,Calm,-,N/A,,Clear,0,2014-01-02 17:55:00
10:55 AM,39.9,24.1,53,30.33,10.0,Calm,Calm,-,N/A,,Clear,0,2014-01-02 18:55:00
11:55 AM,45.0,24.1,44,30.30,10.0,Calm,Calm,-,N/A,,Clear,0,2014-01-02 19:55:00
12:55 PM,48.9,24.1,38,30.26,10.0,SSE,3.5,-,N/A,,Clear,150,2014-01-02 20:55:00
1:55 PM,52.0,24.1,34,30.23,10.0,Calm,Calm,-,N/A,,Clear,0,2014-01-02 21:55:00
2:55 PM,53.1,23.0,31,30.22,10.0,Calm,Calm,-,N/A,,Clear,0,2014-01-02 22:55:00
3:55 PM,52.0,23.0,32,30.22,10.0,SE,3.5,-,N/A,,Clear,130,2014-01-02 23:55:00
4:55 PM,43.0,21.0,42,30.25,10.0,ESE,3.5,-,N/A,,Clear,120,2014-01-03 00:55:00
5:55 PM,35.1,21.0,57,30.28,7.0,Calm,Calm,-,N/A,,Clear,0,2014-01-03 01:55:00
6:55 PM,28.9,18.0,64,30.29,7.0,Calm,Calm,-,N/A,,Clear,0,2014-01-03 02:55:00
7:55 PM,28.0,19.0,69,30.29,10.0,Calm,Calm,-,N/A,,Clear,0,2014-01-03 03:55:00
8:55 PM,25.0,18.0,75,30.27,5.0,Calm,Calm,-,N/A,,Haze,0,2014-01-03 04:55:00
9:55 PM,24.1,17.1,75,30.26,7.0,Calm,Calm,-,N/A,,Clear,0,2014-01-03 05:55:00
10:55 PM,24.1,18.0,77,30.23,10.0,Calm,Calm,-,N/A,,Clear,0,2014-01-03 06:55:00
11:31 PM,21.9,17.1,82,30.16,2.0,Calm,Calm,-,N/A,,Haze,0,2014-01-03 07:31:00
11:55 PM,19.0,15.1,85,30.21,7.0,Calm,Calm,-,N/A,,Clear,0,2014-01-03 07:55:00